STARLINK-4065 (52841 NORAD) Tracking and Keplerian Element Data

This shows tracking and keplerian element data for the satellite.

Feedback or suggestion? Click here.




ElementValue
Catalog52841
NameSTARLINK-4065
Epoch Orbit130
Epoch Day270.00001157
Epoch Year2022
RAAN289.0858
Inclination53.2182
Eccentricity0.0001999
Argument of Perigee35.6237
Mean Anonmoly104.0273
Mean Motion15.08806968
Decay Rate0.00036999
L11 52841U 22062M 22270.00001157 .00036999 00000+0 23327-2 0 9993
L22 52841 53.2182 289.0858 0001999 35.6237 104.0273 15.08806968 1309

Live tracking and technical data element details for STARLINK-4065 (NORAD 52841). STARLINK-4065 can be tracked NOW for your location showing map with azimuth and elevation plus other details from your city location.

Track the satellite on the map from your city or location and see movement details for azimuth, elevation, latitude, longitude, range, height, and movement on the map or in text.







IsCatalogInMostPopularTable: catalog: 52841, numindb: 4
Update: records affected: 1



GetName: 52841 STARLINK-4065

Hit Count: updated at: Thu, 06 Oct 2022 04:17:06 GMT